| time (UTC) | temp F | wind direction | speed knots | gust knots | rain 1hr in | rain 24hr in | rain mn in | humidity % | barometer mb |
| 20260906115241 | 72 | 167 | 0.0 | 0.0 | 0.00 | 0.02 | 0.00 | 93 | 1014.6 |
| 20260906113249 | 71 | 24 | 0.0 | 0.0 | 0.00 | 0.02 | 0.00 | 94 | 1014.5 |
| 20260906112249 | 71 | 24 | 0.0 | 0.0 | 0.00 | 0.02 | 0.00 | 94 | 1014.5 |
| 20260906111249 | 71 | 49 | 0.0 | 0.0 | 0.00 | 0.02 | 0.00 | 93 | 1014.4 |
| 20260906110249 | 71 | 34 | 0.0 | 0.0 | 0.00 | 0.02 | 0.00 | 93 | 1014.3 |
| 20260906104249 | 71 | 10 | 0.0 | 0.0 | 0.00 | 0.02 | 0.00 | 93 | 1014.5 |
| 20260906103249 | 71 | 15 | 0.0 | 0.0 | 0.00 | 0.02 | 0.00 | 93 | 1014.5 |
| 20260906102249 | 71 | 63 | 0.0 | 0.0 | 0.00 | 0.02 | 0.00 | 92 | 1014.4 |
| 20260906101248 | 72 | 275 | 0.0 | 0.0 | 0.00 | 0.02 | 0.00 | 92 | 1014.4 |
| 20260906100249 | 72 | 270 | 0.0 | 0.0 | 0.00 | 0.02 | 0.00 | 92 | 1014.3 |
| 20260906095248 | 72 | 360 | 0.0 | 0.0 | 0.00 | 0.02 | 0.00 | 92 | 1014.4 |
| 20260906094249 | 72 | 264 | 0.0 | 0.9 | 0.00 | 0.02 | 0.00 | 93 | 1014.6 |
| 20260906091248 | 71 | 317 | 0.9 | 1.7 | 0.00 | 0.02 | 0.00 | 93 | 1014.4 |
| 20260906085248 | 71 | 59 | 0.0 | 0.0 | 0.00 | 0.02 | 0.00 | 93 | 1014.3 |
| 20260906083248 | 71 | 59 | 0.0 | 0.0 | 0.00 | 0.02 | 0.00 | 93 | 1014.5 |
| 20260906082248 | 71 | 315 | 0.0 | 0.0 | 0.00 | 0.02 | 0.00 | 92 | 1014.4 |
| 20260906081248 | 72 | 315 | 0.0 | 0.0 | 0.00 | 0.02 | 0.00 | 91 | 1014.3 |
| 20260906080248 | 72 | 315 | 0.0 | 0.0 | 0.00 | 0.02 | 0.00 | 92 | 1014.4 |
| 20260906075248 | 72 | 315 | 0.0 | 1.7 | 0.00 | 0.02 | 0.00 | 91 | 1014.3 |
| 20260906073247 | 72 | 336 | 0.9 | 3.5 | 0.00 | 0.02 | 0.00 | 91 | 1014.3 |
| 20260906071247 | 72 | 254 | 2.6 | 2.6 | 0.00 | 0.02 | 0.00 | 92 | 1014.4 |
| 20260906070248 | 72 | 276 | 0.0 | 0.0 | 0.00 | 0.02 | 0.00 | 92 | 1014.4 |
| 20260906065247 | 71 | 276 | 0.0 | 0.0 | 0.00 | 0.02 | 0.00 | 92 | 1014.4 |
| 20260906064247 | 71 | 276 | 0.0 | 0.0 | 0.00 | 0.02 | 0.00 | 92 | 1014.7 |
| 20260906063247 | 71 | 276 | 0.9 | 0.9 | 0.00 | 0.02 | 0.00 | 93 | 1014.7 |
| 20260906062247 | 71 | 340 | 1.7 | 2.6 | 0.00 | 0.02 | 0.00 | 93 | 1014.7 |
| 20260906061247 | 71 | 322 | 0.9 | 1.7 | 0.00 | 0.02 | 0.00 | 92 | 1014.7 |
| 20260906060247 | 71 | 338 | 0.0 | 0.9 | 0.00 | 0.02 | 0.00 | 92 | 1014.7 |
| 20260906055247 | 71 | 338 | 0.0 | 0.9 | 0.00 | 0.02 | 0.00 | 92 | 1014.8 |
| 20260906054247 | 71 | 206 | 0.0 | 0.0 | 0.00 | 0.02 | 0.00 | 92 | 1014.8 |
| 20260906053246 | 71 | 206 | 0.0 | 0.9 | 0.00 | 0.02 | 0.00 | 92 | 1014.9 |
| 20260906052246 | 71 | 210 | 0.9 | 1.7 | 0.00 | 0.02 | 0.00 | 91 | 1014.7 |
| 20260906045247 | 73 | 182 | 0.9 | 1.7 | 0.00 | 0.02 | 0.00 | 88 | 1015.2 |
| 20260906044246 | 73 | 15 | 0.0 | 0.9 | 0.00 | 0.02 | 0.00 | 87 | 1015.0 |
| 20260906043246 | 73 | 347 | 0.9 | 1.7 | 0.00 | 0.02 | 0.00 | 87 | 1014.9 |
| 20260906042246 | 73 | 288 | 1.7 | 2.6 | 0.00 | 0.02 | 0.00 | 87 | 1014.9 |
| 20260906041246 | 73 | 326 | 0.9 | 1.7 | 0.00 | 0.02 | 0.00 | 87 | 1014.7 |
| 20260906034246 | 72 | 5 | 0.0 | 2.6 | 0.00 | 0.02 | 0.02 | 88 | 1014.7 |
| 20260906032245 | 72 | 331 | 0.9 | 2.6 | 0.00 | 0.02 | 0.02 | 90 | 1014.7 |
| 20260906031246 | 72 | 355 | 1.7 | 2.6 | 0.00 | 0.02 | 0.02 | 90 | 1014.8 |
| 20260906030245 | 72 | 55 | 0.9 | 1.7 | 0.00 | 0.02 | 0.02 | 89 | 1015.0 |
| 20260906024246 | 72 | 15 | 0.9 | 2.6 | 0.00 | 0.02 | 0.02 | 89 | 1015.0 |
| 20260906022246 | 72 | 29 | 0.9 | 1.7 | 0.00 | 0.02 | 0.02 | 86 | 1015.4 |
| 20260906021245 | 72 | 267 | 0.9 | 4.3 | 0.00 | 0.02 | 0.02 | 86 | 1015.5 |
| 20260906020246 | 72 | 244 | 2.6 | 3.5 | 0.00 | 0.02 | 0.02 | 87 | 1015.4 |
| 20260906015245 | 72 | 34 | 0.0 | 0.0 | 0.00 | 0.02 | 0.02 | 88 | 1015.3 |
| 20260906014245 | 72 | 34 | 0.0 | 0.0 | 0.00 | 0.02 | 0.02 | 88 | 1015.0 |
| 20260906011245 | 72 | 306 | 0.9 | 1.7 | 0.02 | 0.02 | 0.02 | 83 | 1014.8 |
| 20260906005245 | 72 | 196 | 0.9 | 6.1 | 0.02 | 0.02 | 0.02 | 83 | 1014.4 |
| 20260906004244 | 72 | 163 | 3.5 | 5.2 | 0.02 | 0.02 | 0.02 | 83 | 1014.7 |
| 20260906003245 | 74 | 97 | 1.7 | 5.2 | 0.02 | 0.02 | 0.02 | 77 | 1014.2 |
| 20260906002244 | 76 | 268 | 0.9 | 7.0 | 0.01 | 0.01 | 0.01 | 72 | 1015.5 |
| 20260906001244 | 79 | 355 | 2.6 | 5.2 | 0.00 | 0.00 | 0.00 | 64 | 1015.4 |
| 20260906000244 | 82 | 29 | 3.5 | 14.8 | 0.00 | 0.00 | 0.00 | 62 | 1014.9 |
| 20260905235244 | 86 | 263 | 13.9 | 18.2 | 0.00 | 0.00 | 0.00 | 63 | 1014.6 |
| 20260905234244 | 88 | 274 | 7.8 | 8.7 | 0.00 | 0.00 | 0.00 | 69 | 1013.5 |
| 20260905232244 | 89 | 232 | 5.2 | 8.7 | 0.00 | 0.00 | 0.00 | 66 | 1012.9 |
| 20260905231243 | 89 | 224 | 6.1 | 8.7 | 0.00 | 0.00 | 0.00 | 66 | 1013.0 |
| 20260905225244 | 91 | 238 | 6.1 | 7.8 | 0.00 | 0.00 | 0.00 | 63 | 1013.1 |
| 20260905224244 | 92 | 222 | 6.1 | 7.8 | 0.00 | 0.00 | 0.00 | 62 | 1013.3 |
| 20260905223244 | 93 | 230 | 6.1 | 7.0 | 0.00 | 0.00 | 0.00 | 61 | 1013.2 |
| 20260905222244 | 92 | 223 | 6.1 | 8.7 | 0.00 | 0.00 | 0.00 | 61 | 1013.1 |
| 20260905221244 | 93 | 262 | 7.0 | 8.7 | 0.00 | 0.00 | 0.00 | 59 | 1013.0 |
| 20260905220243 | 93 | 271 | 7.8 | 10.4 | 0.00 | 0.00 | 0.00 | 57 | 1012.7 |
| 20260905215243 | 95 | 272 | 7.8 | 8.7 | 0.00 | 0.00 | 0.00 | 55 | 1012.8 |
| 20260905214244 | 97 | 223 | 4.3 | 4.3 | 0.00 | 0.00 | 0.00 | 44 | 1012.7 |
| 20260905212243 | 97 | 215 | 2.6 | 3.5 | 0.00 | 0.00 | 0.00 | 42 | 1012.6 |
| 20260905211243 | 96 | 146 | 1.7 | 2.6 | 0.00 | 0.00 | 0.00 | 43 | 1012.7 |
| 20260905210243 | 96 | 160 | 0.0 | 3.5 | 0.00 | 0.00 | 0.00 | 42 | 1012.8 |
| 20260905205243 | 96 | 167 | 2.6 | 3.5 | 0.00 | 0.00 | 0.00 | 42 | 1012.9 |
| 20260905203243 | 97 | 117 | 1.7 | 3.5 | 0.00 | 0.00 | 0.00 | 43 | 1013.2 |
| 20260905202243 | 96 | 193 | 3.5 | 3.5 | 0.00 | 0.00 | 0.00 | 42 | 1013.2 |
| 20260905201243 | 97 | 118 | 4.3 | 4.3 | 0.00 | 0.00 | 0.00 | 44 | 1013.5 |
| 20260905200243 | 97 | 306 | 0.9 | 3.5 | 0.00 | 0.00 | 0.00 | 42 | 1013.7 |
| 20260905195243 | 97 | 226 | 2.6 | 3.5 | 0.00 | 0.00 | 0.00 | 42 | 1014.0 |
| 20260905194242 | 95 | 203 | 1.7 | 3.5 | 0.00 | 0.00 | 0.00 | 45 | 1014.1 |
| 20260905193243 | 96 | 101 | 0.9 | 2.6 | 0.00 | 0.00 | 0.00 | 46 | 1014.2 |
| 20260905192243 | 95 | 234 | 3.5 | 4.3 | 0.00 | 0.00 | 0.00 | 47 | 1014.4 |
| 20260905191243 | 95 | 51 | 0.9 | 7.0 | 0.00 | 0.00 | 0.00 | 45 | 1014.3 |
| 20260905190242 | 97 | 350 | 3.5 | 7.0 | 0.00 | 0.00 | 0.00 | 45 | 1014.3 |
| 20260905185242 | 96 | 63 | 1.7 | 5.2 | 0.00 | 0.00 | 0.00 | 44 | 1014.5 |
| 20260905183242 | 96 | 49 | 4.3 | 9.6 | 0.00 | 0.00 | 0.00 | 43 | 1014.8 |
| 20260905182242 | 95 | 155 | 1.7 | 5.2 | 0.00 | 0.00 | 0.00 | 44 | 1014.9 |
| 20260905180242 | 94 | 78 | 2.6 | 5.2 | 0.00 | 0.00 | 0.00 | 46 | 1015.1 |
| 20260905175242 | 95 | 225 | 0.0 | 3.5 | 0.00 | 0.00 | 0.00 | 50 | 1015.2 |
| 20260905174242 | 95 | 29 | 3.5 | 5.2 | 0.00 | 0.00 | 0.00 | 48 | 1015.3 |
| 20260905173242 | 95 | 105 | 3.5 | 7.0 | 0.00 | 0.00 | 0.00 | 50 | 1015.4 |
| 20260905172242 | 94 | 32 | 2.6 | 5.2 | 0.00 | 0.00 | 0.00 | 50 | 1015.6 |
| 20260905171242 | 94 | 164 | 1.7 | 4.3 | 0.00 | 0.00 | 0.00 | 50 | 1015.8 |
| 20260905170242 | 94 | 143 | 3.5 | 5.2 | 0.00 | 0.00 | 0.00 | 52 | 1016.0 |
| 20260905165241 | 93 | 57 | 7.0 | 7.0 | 0.00 | 0.00 | 0.00 | 52 | 1016.0 |
| 20260905164241 | 93 | 304 | 3.5 | 4.3 | 0.00 | 0.00 | 0.00 | 54 | 1016.2 |
| 20260905162241 | 92 | 22 | 0.9 | 6.1 | 0.00 | 0.00 | 0.00 | 53 | 1016.5 |
| 20260905161241 | 92 | 298 | 0.9 | 3.5 | 0.00 | 0.00 | 0.00 | 53 | 1016.5 |
| 20260905160241 | 92 | 39 | 3.5 | 8.7 | 0.00 | 0.00 | 0.00 | 54 | 1016.6 |
| 20260905154241 | 91 | 71 | 4.3 | 8.7 | 0.00 | 0.00 | 0.00 | 53 | 1016.6 |
| 20260905153241 | 91 | 110 | 0.9 | 6.1 | 0.00 | 0.00 | 0.00 | 54 | 1016.8 |
| 20260905152241 | 91 | 339 | 0.9 | 4.3 | 0.00 | 0.00 | 0.00 | 57 | 1016.8 |
| 20260905151241 | 90 | 51 | 3.5 | 3.5 | 0.00 | 0.00 | 0.00 | 56 | 1017.0 |
| 20260905150240 | 89 | 53 | 1.7 | 5.2 | 0.00 | 0.00 | 0.00 | 60 | 1017.0 |
| 20260905145241 | 89 | 281 | 0.9 | 4.3 | 0.00 | 0.00 | 0.00 | 62 | 1016.9 |
| 20260905143241 | 88 | 46 | 2.6 | 3.5 | 0.00 | 0.00 | 0.00 | 65 | 1017.0 |
| 20260905142240 | 87 | 290 | 2.6 | 5.2 | 0.00 | 0.00 | 0.00 | 66 | 1017.0 |
| 20260905140241 | 87 | 342 | 2.6 | 4.3 | 0.00 | 0.00 | 0.00 | 69 | 1017.1 |
| 20260905135240 | 86 | 309 | 2.6 | 3.5 | 0.00 | 0.00 | 0.00 | 70 | 1017.2 |
| 20260905134241 | 85 | 326 | 1.7 | 4.3 | 0.00 | 0.00 | 0.00 | 72 | 1017.1 |
| 20260905133241 | 84 | 355 | 2.6 | 3.5 | 0.00 | 0.00 | 0.00 | 74 | 1017.1 |
| 20260905132240 | 83 | 12 | 2.6 | 2.6 | 0.00 | 0.00 | 0.00 | 79 | 1017.0 |
| 20260905131240 | 82 | 336 | 0.9 | 3.5 | 0.00 | 0.00 | 0.00 | 82 | 1017.2 |
| 20260905130241 | 81 | 326 | 1.7 | 3.5 | 0.00 | 0.00 | 0.00 | 82 | 1017.3 |
| 20260905125240 | 80 | 345 | 0.9 | 2.6 | 0.00 | 0.00 | 0.00 | 85 | 1017.3 |
| 20260905124240 | 78 | 5 | 0.0 | 1.7 | 0.00 | 0.00 | 0.00 | 87 | 1017.1 |
| 20260905123240 | 77 | 360 | 0.9 | 2.6 | 0.00 | 0.00 | 0.00 | 88 | 1017.0 |
| 20260905122240 | 76 | 319 | 0.0 | 1.7 | 0.00 | 0.00 | 0.00 | 92 | 1017.0 |
| 20260905121240 | 75 | 339 | 0.0 | 1.7 | 0.00 | 0.00 | 0.00 | 93 | 1016.8 |